Weather History for CWSA - November, 2012

Change the Weather History Date:

Monday, November 26, 2012

  Actual Average Record
Temperature  
Mean Temperature 42 °F -  
Max Temperature 45 °F 44 °F 59 °F (2004)
Min Temperature 39 °F 36 °F 27 °F (2015)
Degree Days  
Heating Degree Days 23    
Moisture  
Dew Point 30 °F    
Average Humidity 58    
Maximum Humidity 81    
Minimum Humidity 33    
Precipitation  
Precipitation 0.04 in - - ()
Sea Level Pressure  
Sea Level Pressure 29.73 in    
Wind  
Wind Speed 24 mph ()    
Max Wind Speed 33 mph    
Max Gust Speed 43 mph    
Visibility 7.8 miles    
Events Rain    
Averages and records for this station are not official NWS values.
T = Trace of Precipitation, MM = Missing Value Source: Averaged Metar Reports

Daily Weather History Graph

Daily Weather History Graph

Search for Another Location

Airport or City:

Trip Planner

Search our weather history database for the weather conditions in past years. The results will help you decide how hot, cold, wet, or windy it might be!

Date:

Astronomy

Nov. 26, 2012 Rise Set
Actual Time 7:09 AM AST 4:25 PM AST
Civil Twilight 6:37 AM AST 4:57 PM AST
Nautical Twilight 6:01 AM AST 5:33 PM AST
Astronomical Twilight 5:26 AM AST 6:07 PM AST
Moon 3:16 PM AST (11/26) 5:12 AM AST (11/26)
Length of Visible Light 10h 20m
Length of Day
9h 16m
Waxing Gibbous, 97% of the Moon is Illuminated
Nov 26
Waxing Gibbous
Nov 28
Full
Dec 6
Last Quarter
Dec 13
New
Dec 20
First Quarter

Hourly Weather History & Observations

Time (AST) Temp. Windchill Dew Point Humidity Pressure Visibility Wind Dir Wind Speed Gust Speed Precip Events Conditions
12:00 AM 44.6 °F 34.9 °F 32.0 °F 61% 29.60 in 6.0 mi WSW 28.8 mph 36.8 mph N/A Rain Light Rain
12:09 AM 44.6 °F 35.3 °F 32.0 °F 61% 29.60 in 6.0 mi WSW 26.5 mph 42.6 mph N/A   Overcast
12:20 AM 44.6 °F 35.3 °F 32.0 °F 61% 29.60 in 6.0 mi West 26.5 mph 39.1 mph N/A Rain Light Rain
12:33 AM 46.4 °F 37.2 °F 32.0 °F 57% 29.60 in 6.0 mi WSW 29.9 mph 39.1 mph N/A   Overcast
1:00 AM 44.6 °F 35.5 °F 32.0 °F 61% 29.61 in 7.0 mi West 25.3 mph 35.7 mph N/A   Overcast
1:21 AM 44.6 °F 34.4 °F 33.8 °F 66% 29.61 in 6.0 mi WSW 32.2 mph - N/A Rain Light Rain
1:34 AM 42.8 °F 33.5 °F 32.0 °F 66% 29.60 in 6.0 mi West 23.0 mph 41.4 mph N/A   Overcast
2:00 AM 44 °F - 34 °F 57% 29.62 in 6 mi WSW 27.6 mph - -   Unknown Precipitation
2:00 AM 44.6 °F 35.5 °F 33.8 °F 66% 29.62 in 6.0 mi WSW 25.3 mph 39.1 mph N/A   Mostly Cloudy
2:09 AM 44.6 °F 35.9 °F 32.0 °F 61% 29.61 in 6.0 mi West 23.0 mph 33.4 mph N/A Rain Light Rain
2:15 AM 44.6 °F 35.9 °F 32.0 °F 61% 29.62 in 8.0 mi West 23.0 mph 31.1 mph N/A   Mostly Cloudy
2:28 AM 44.6 °F 35.7 °F 33.8 °F 66% 29.62 in 8.0 mi West 24.2 mph 29.9 mph N/A Rain Light Rain
2:37 AM 41.0 °F 31.4 °F 35.6 °F 81% 29.63 in 4.0 mi West 21.9 mph 31.1 mph N/A Rain Light Rain
2:52 AM 41.0 °F 30.7 °F 33.8 °F 76% 29.63 in 8.0 mi West 25.3 mph 34.5 mph N/A   Overcast
3:00 AM 41.0 °F 30.9 °F 33.8 °F 76% 29.64 in 9.0 mi West 24.2 mph 31.1 mph N/A   Overcast
3:16 AM 41.0 °F 31.6 °F 33.8 °F 76% 29.64 in 9.0 mi West 20.7 mph 31.1 mph N/A   Mostly Cloudy
3:27 AM 42.8 °F 34.0 °F 33.8 °F 70% 29.63 in 7.0 mi WSW 20.7 mph - N/A Rain Light Rain
3:33 AM 41.0 °F 29.3 °F 35.6 °F 81% 29.65 in 2.5 mi WSW 33.4 mph 41.4 mph N/A Rain Rain
3:34 AM 41.0 °F 29.8 °F 35.6 °F 81% 29.65 in 2.1 mi WSW 29.9 mph 41.4 mph N/A Rain Rain
3:54 AM 42.8 °F 34.0 °F 33.8 °F 70% 29.64 in 7.0 mi West 20.7 mph 29.9 mph N/A Rain Light Rain
3:55 AM 42.8 °F 34.5 °F 33.8 °F 70% 29.64 in 7.0 mi West 18.4 mph 29.9 mph N/A   Overcast
4:00 AM 42.8 °F 33.1 °F 33.8 °F 70% 29.65 in 8.0 mi West 25.3 mph 31.1 mph N/A   Overcast
4:06 AM 42.8 °F 33.8 °F 32.0 °F 66% 29.64 in 8.0 mi West 21.9 mph 31.1 mph N/A   Overcast
4:25 AM 42.8 °F 33.5 °F 32.0 °F 66% 29.65 in 8.0 mi West 23.0 mph 35.7 mph N/A   Overcast
5:00 AM 43 °F - 31 °F 52% 29.67 in 9 mi West 21.9 mph - -   Overcast
5:00 AM 42.8 °F 34.3 °F 32.0 °F 66% 29.67 in 9.0 mi West 19.6 mph 31.1 mph N/A   Overcast
6:00 AM 42.8 °F 33.1 °F 32.0 °F 66% 29.69 in 9.0 mi West 25.3 mph 31.1 mph N/A   Overcast
7:00 AM 42.8 °F 32.7 °F 28.4 °F 57% 29.70 in 9.0 mi West 27.6 mph 34.5 mph N/A   Mostly Cloudy
8:00 AM 43 °F - 28 °F 42% 29.73 in 9 mi West 27.6 mph - -   Unknown Precipitation
8:00 AM 42.8 °F 32.9 °F 28.4 °F 57% 29.73 in 9.0 mi West 26.5 mph 34.5 mph N/A   Overcast
9:00 AM 44.6 °F 34.7 °F 26.6 °F 49% 29.75 in 9.0 mi WSW 29.9 mph 40.3 mph N/A   Mostly Cloudy
10:00 AM 44.6 °F 34.9 °F 28.4 °F 53% 29.77 in 9.0 mi West 28.8 mph 35.7 mph N/A   Overcast
11:00 AM 44 °F - 26 °F 35% 29.77 in 9 mi West 29.9 mph - -  
11:00 AM 44.6 °F 34.7 °F 24.8 °F 46% 29.77 in 9.0 mi West 29.9 mph 40.3 mph N/A   Scattered Clouds
12:00 PM 44.6 °F 35.5 °F 28.4 °F 53% 29.77 in 9.0 mi WSW 25.3 mph 36.8 mph N/A   Scattered Clouds
1:00 PM 44.6 °F 35.3 °F 26.6 °F 49% 29.77 in 8.0 mi WSW 26.5 mph 41.4 mph N/A   Partly Cloudy
2:00 PM 44 °F - 27 °F 39% 29.78 in 9 mi West 25.3 mph - -  
2:00 PM 44.6 °F 35.7 °F 26.6 °F 49% 29.78 in 9.0 mi West 24.2 mph 36.8 mph N/A   Partly Cloudy
3:00 PM 42.8 °F 32.9 °F 24.8 °F 49% 29.81 in 9.0 mi West 26.5 mph 35.7 mph N/A   Scattered Clouds
4:00 PM 41.0 °F 30.0 °F 24.8 °F 53% 29.84 in 9.0 mi West 28.8 mph 36.8 mph N/A   Mostly Cloudy
5:00 PM 42 °F - 26 °F 40% 29.87 in 9 mi West 24.2 mph - -  
5:00 PM 42.8 °F 33.5 °F 26.6 °F 53% 29.87 in 9.0 mi West 23.0 mph 33.4 mph N/A   Mostly Cloudy
6:00 PM 42.8 °F 32.5 °F 23.0 °F 46% 29.89 in 9.0 mi West 28.8 mph 35.7 mph N/A   Mostly Cloudy
7:00 PM 42.8 °F 33.5 °F 21.2 °F 42% 29.92 in 9.0 mi West 23.0 mph 35.7 mph N/A   Scattered Clouds
8:00 PM 42 °F - 24 °F 35% 29.94 in 9 mi West 24.2 mph - -   Unknown Precipitation
8:00 PM 42.8 °F 33.5 °F 23.0 °F 46% 29.94 in 9.0 mi West 23.0 mph 33.4 mph N/A   Mostly Cloudy
9:00 PM 42.8 °F 33.5 °F 24.8 °F 49% 29.96 in 9.0 mi West 23.0 mph 33.4 mph N/A   Scattered Clouds
10:00 PM 42.8 °F 34.0 °F 23.0 °F 46% 29.99 in 9.0 mi WNW 20.7 mph 32.2 mph N/A   Scattered Clouds
11:00 PM 42 °F - 23 °F 33% 30.00 in 9 mi West 20.7 mph - -  
11:00 PM 41.0 °F 31.9 °F 23.0 °F 49% 30.00 in 9.0 mi WNW 19.6 mph 31.1 mph N/A   Scattered Clouds